Погода в Медянках Татарских

Россия / Тюменская область     58°08′39″N   68°13′09″E
темп.,
°C
ветер,
м/с
пор.,
м/с
влажн.,
%
обл.,
%
осадки,
мм/ч
давл.,
гПа
погр.,
м
6 мая, чт
чт623:00+17ююв61648100 0.0 996341
02:00+19ю81743100 0.0 992638
05:00+12зсз71473100 0.0 994668
08:00+11з9136643 0.2 9971296
11:00+13з8124381 0.3 10002296
14:00+13з9123976 0.0 10022312
17:00+13з8113875 0.1 10052381
20:00+10з610465 0.0 1007854
7 мая, пт
пт723:00+8з611565 0.0 1009811
02:00+6з611625 0.0 1011867
05:00+4з612645 0.0 1013754
08:00+7з812490 0.0 10151171
11:00+12з811330 0.0 10151555
14:00+17з812325 0.0 10151891
17:00+19з7123511 0.0 10162253
20:00+16зюз5114762 0.0 1016309
8 мая, сб
сб823:00+15зюз4105288 0.0 1017255
02:00+12зюз496143 0.0 1018176
05:00+11зюз35685 0.0 101895
08:00+16з245320 0.0 1019336
11:00+21з34356 0.0 10192229
14:00+22з3428100 0.0 10172708
17:00+22з332799 0.0 10172560
20:00+18сз224196 0.0 101714
9 мая, вс
вс923:00+15с2252100 0.0 101731
02:00+14св236181 0.1 101848
05:00+12ссв4771100 0.3 1019121
08:00+16св585385 0.0 1019458
11:00+20св5541100 0.0 10191426
14:00+21ссв5435100 0.0 10192272
17:00+20св5639100 0.0 10191274
20:00+17св4742100 0.0 1020155
10 мая, пн
пн1023:00+13всв384782 0.0 1021125
02:00+10всв36591 0.0 1021105
05:00+9всв36644 0.0 1022103
08:00+15всв35450 0.0 1022459
11:00+18ссв44290 0.0 10221561
14:00+20ссв34250 0.0 10211949
17:00+21ссв34250 0.0 10202042
20:00+17всв2239100 0.0 102011